Regional Weather Roundup
Issued by NWS

Home | Current Version | Previous Version | Graphics & Text | Print | Product List | Glossary On
Versions: 1 2 3 4 5 6 7 8 9 10 11 12 13 14 15 16 17 18 19 20 21 22 23 24 25 26 27 28 29 30 31 32 33 34 35 36 37 38 39 40 41 42 43 44 45 46 47 48 49 50
552
ASUS43 KDTX 221801
RWRMI
MICHIGAN HOURLY REGIONAL WEATHER ROUNDUP
NATIONAL WEATHER SERVICE DETROIT/PONTIAC MI
200 PM EDT TUE MAY 22 2018

NOTE: "FAIR" INDICATES FEW OR NO CLOUDS BELOW 12,000 FEET WITH NO
SIGNIFICANT WEATHER AND/OR OBSTRUCTION TO VISIBILITY.

MIZ047>049-052>055-059>063-066>070-074>076-081>083-221900-
SOUTHEAST LOWER MICHIGAN

CITY           SKY/WX    TMP DP  RH WIND       PRES   REMARKS
ADRIAN         PTSUNNY   73  66  78 VRB5      29.98F
6HR MIN TEMP:  56; 6HR MAX TEMP:  73;

ALMA           CLOUDY    59  56  90 NW8       30.03S
6HR MIN TEMP:  51; 6HR MAX TEMP:  59;

ANN ARBOR      LGT RAIN  71  65  81 SW5       29.97F
BAD AXE        CLOUDY    57  53  87 N9        30.01S
6HR MIN TEMP:  52; 6HR MAX TEMP:  58;

CARO           CLOUDY    58  53  82 N7        30.01R
DETROIT CITY   PTSUNNY   74  62  66 MISG      29.96F
6HR MIN TEMP:  58; 6HR MAX TEMP:  74;

DETROIT        PTSUNNY   74  63  68 W7        29.97F HAZE
6HR MIN TEMP:  57; 6HR MAX TEMP:  74;

FLINT          CLOUDY    62  56  80 W6        30.00F
6HR MIN TEMP:  53; 6HR MAX TEMP:  63;

GROSSE ILE     FAIR      68  63  84 CALM      29.96F HAZE
6HR MIN TEMP:  58; 6HR MAX TEMP:  68;

HILLSDALE      PTSUNNY   73  61  64 W14G21    30.00S
HOWELL         CLOUDY    64  60  87 CALM      30.00S
6HR MIN TEMP:  54; 6HR MAX TEMP:  65; 6HR PCP:  0.02;


CITY           SKY/WX    TMP DP  RH WIND       PRES   REMARKS
JACKSON        PTSUNNY   70  63  78 W9        29.99F
6HR MIN TEMP:  55; 6HR MAX TEMP:  70;

LAMBERTVILLE   CLOUDY    75  65  71 W5        29.96F
6HR MIN TEMP:  62; 6HR MAX TEMP:  75;

LANSING        CLOUDY    60  57  89 NW7       30.02S
6HR MIN TEMP:  55; 6HR MAX TEMP:  63;

LAPEER         CLOUDY    62  55  78 NW5       30.00S
6HR MIN TEMP:  52; 6HR MAX TEMP:  62;

MASON          CLOUDY    65  61  85 NW6       30.00S
6HR MIN TEMP:  55; 6HR MAX TEMP:  66;

MONROE         PTSUNNY   73  66  76 NW7G16    29.95F
6HR MIN TEMP:  58; 6HR MAX TEMP:  74;

MT. CLEMENS    PTSUNNY   67  67 100 NE7       29.96F FOG
6HR MIN TEMP:  57; 6HR MAX TEMP:  68;

PONTIAC        CLOUDY    67  60  78 NW8       29.98S
6HR MIN TEMP:  55; 6HR MAX TEMP:  68; 6HR PCP: TRACE;

PORT HOPE        N/A     50  49  96 NW9       29.99F
6HR MIN TEMP:  46; 6HR MAX TEMP:  50;

PORT HURON     CLOUDY    64  57  77 W3        29.98F
TRI CITIES     CLOUDY    60  54  80 N9        30.02F
6HR MIN TEMP:  53; 6HR MAX TEMP:  60;

MIDLAND        CLOUDY    57  53  88 N5        30.02S
6HR MIN TEMP:  51; 6HR MAX TEMP:  57;

TROY           CLOUDY    72  61  69 W9        29.99F
SAGINAW HB     CLOUDY    59  54  82 N7        30.01S
$$
MIZ043>046-050>051-056>058-064>065-071>073-077>080-221900-
SOUTHWEST LOWER MICHIGAN

CITY           SKY/WX    TMP DP  RH WIND       PRES   REMARKS
BATTLE CREEK   CLOUDY    69  61  75 W15       30.02S
6HR MIN TEMP:  59; 6HR MAX TEMP:  69; 6HR PCP:  0.04;

BENTON HARBOR  CLOUDY    51  50  96 W6        30.08S FOG
6HR MIN TEMP:  51; 6HR MAX TEMP:  56;

BIG RAPIDS     CLOUDY    58  53  84 NW5       30.03F
6HR MIN TEMP:  51; 6HR MAX TEMP:  58;

COLDWATER      CLOUDY    71  61  70 W10       30.00F
6HR MIN TEMP:  59; 6HR MAX TEMP:  73;

HOLLAND        PTSUNNY   61  54  77 NW8       30.05S
6HR MIN TEMP:  56; 6HR MAX TEMP:  61;

GRAND RAPIDS   CLOUDY    61  58  90 NW6       30.04R
6HR MIN TEMP:  54; 6HR MAX TEMP:  61; 6HR PCP: TRACE;

IONIA          CLOUDY    59  58  97 NW6       30.02S FOG
6HR MIN TEMP:  52; 6HR MAX TEMP:  60;

KALAMAZOO      CLOUDY    68  59  73 W8        30.03S
6HR MIN TEMP:  59; 6HR MAX TEMP:  69;

LUDINGTON      CLOUDY    58  53  84 N5        30.05S
6HR MIN TEMP:  51; 6HR MAX TEMP:  58;

MARSHALL       PTSUNNY   71  59  65 W14       30.00S
6HR MIN TEMP:  56; 6HR MAX TEMP:  72;

MOUNT PLEASANT CLOUDY    60  56  86 N5        30.02S
6HR MIN TEMP:  52; 6HR MAX TEMP:  60;

MUSKEGON       PTSUNNY   66  55  67 NW5       30.04S
6HR MIN TEMP:  54; 6HR MAX TEMP:  66;

SOUTH HAVEN    CLOUDY    54  51  92 NW6       30.07S FOG
$$
MIZ016>042-221900-
NORTHERN LOWER MICHIGAN

CITY           SKY/WX    TMP DP  RH WIND       PRES   REMARKS
ALPENA         FAIR      68  49  50 NE8       30.00F
6HR MIN TEMP:  51; 6HR MAX TEMP:  68; 6HR PCP: TRACE;

BEAVER ISLAND  FAIR      66  44  45 W7        30.04S
6HR MIN TEMP:  53; 6HR MAX TEMP:  66;

BELLAIRE       FAIR      64  45  49 W8G17     30.01S
6HR MIN TEMP:  54; 6HR MAX TEMP:  69;

CADILLAC       CLOUDY    61  53  76 CALM      30.03S
CHARLEVOIX     FAIR      60  45  56 NW7       30.06F
6HR MIN TEMP:  50; 6HR MAX TEMP:  61;

FRANKFORT      FAIR      61  52  71 N6        30.05S
GAYLORD        FAIR      66  50  56 NE8       30.01F
6HR MIN TEMP:  53; 6HR MAX TEMP:  67;

HARBOR SPRINGS FAIR      52  43  73 SW6       30.02S
HOUGHTON LAKE  CLOUDY    62  52  69 SW8       30.01F
6HR MIN TEMP:  51; 6HR MAX TEMP:  66;

MANISTEE       CLOUDY    59  48  67 NW8       30.05S
OSCODA         CLOUDY    61  53  74 CALM      30.00F
6HR MIN TEMP:  51; 6HR MAX TEMP:  61;

PELLSTON       FAIR      72  44  36 E8        30.01F
6HR MIN TEMP:  56; 6HR MAX TEMP:  72;

ROGERS CITY    FAIR      56  42  61 N6        30.03S
TRAVERSE CITY  FAIR      65  48  54 VRB6      30.02S
6HR MIN TEMP:  53; 6HR MAX TEMP:  66;

$$
MIZ007>008-015-221900-
EASTERN UPPER MICHIGAN

CITY           SKY/WX    TMP DP  RH WIND       PRES   REMARKS
KINROSS        FAIR      71  44  37 NW6       30.00F
6HR MIN TEMP:  52; 6HR MAX TEMP:  72;

MACKINAC ISLAN FAIR      67  42  41 S5        30.01F
6HR MIN TEMP:  51; 6HR MAX TEMP:  68;

NEWBERRY       FAIR      69  48  46 SW8       30.00F
6HR MIN TEMP:  50; 6HR MAX TEMP:  69;

S. S. MARIE    FAIR      71  45  39 NW9       29.99F
6HR MIN TEMP:  55; 6HR MAX TEMP:  72;

MUNISING         N/A     53  34  48 NE12      30.01F
6HR MIN TEMP:  53; 6HR MAX TEMP:  63;

$$
MIZ004>006-011>014-085-221900-
CENTRAL UPPER MICHIGAN

CITY           SKY/WX    TMP DP  RH WIND       PRES   REMARKS
MANISTIQUE     FAIR      61  46  58 S9        30.02F
6HR MIN TEMP:  53; 6HR MAX TEMP:  63;

ESCANABA       FAIR      63  50  62 S9        30.03F
6HR MIN TEMP:  52; 6HR MAX TEMP:  64;

MENOMINEE      FAIR      62  51  67 SE9       30.05F
6HR MIN TEMP:  50; 6HR MAX TEMP:  63;

SAWYER-GWINN   SUNNY     72  30  21 NE6       30.02F
$$
MIZ001>003-009>011-084-221900-
WESTERN UPPER MICHIGAN

CITY           SKY/WX    TMP DP  RH WIND       PRES   REMARKS
IRON MOUNTAIN  FAIR      77  41  27 N8        30.00F
6HR MIN TEMP:  52; 6HR MAX TEMP:  77;

HOUGHTON       FAIR      72  41  32 W14       30.01S
6HR MIN TEMP:  54; 6HR MAX TEMP:  74;

COPPER HARBOR    N/A     54  45  71 N17       29.99S
6HR MIN TEMP:  45; 6HR MAX TEMP:  55;

IRONWOOD       CLOUDY    72  46  39 VRB5      30.04F
6HR MIN TEMP:  54; 6HR MAX TEMP:  72;

$$

ABBREVIATIONS USED IN REMARKS
   TC - TEMPERATURE IN CELSIUS
  WCI - WIND CHILL INDEX
   HX - HEAT INDEX
  VSB - VISIBILITY





USA.gov is the U.S. government's official web portal to all federal, state and local government web resources and services.